This is the latest recevied weather packets stored in our database for station/object W8DRH-13. If no packets are shown the sender has not sent any weather packets the latest 10 day(s).
| Time | Temp. | Humidity | Pressure | Rain* | Wind** | Luminosity | Snow |
|---|---|---|---|---|---|---|---|
| 1777490169 | 13.33° C | 89% | 1006.8 hPa | 0 mm | - | 69 W/m² | - |
| 1777489867 | 13.33° C | 89% | 1006.8 hPa | 0 mm | - | 100 W/m² | - |
| 1777489564 | 13.33° C | 89% | 1006.8 hPa | 0 mm | - | 212 W/m² | - |
| 1777489261 | 13.89° C | 89% | 1006.7 hPa | 0 mm | - | 216 W/m² | - |
| 1777488957 | 13.89° C | 88% | 1006.6 hPa | 0 mm | - | 143 W/m² | - |
| 1777488655 | 13.89° C | 88% | 1006.9 hPa | 0 mm | - | 184 W/m² | - |
| 1777488352 | 14.44° C | 88% | 1006.7 hPa | 0 mm | - | 285 W/m² | - |
| 1777488051 | 13.89° C | 89% | 1006.5 hPa | 0 mm | - | 342 W/m² | - |
| 1777487748 | 13.89° C | 89% | 1006.6 hPa | 0 mm | - | 214 W/m² | - |
| 1777487445 | 13.89° C | 88% | 1006.6 hPa | 0 mm | - | 169 W/m² | - |
| 1777487143 | 14.44° C | 89% | 1006.3 hPa | 0 mm | - | 249 W/m² | - |
| 1777486838 | 13.89° C | 90% | 1006.4 hPa | 0 mm | - | 778 W/m² | - |
| 1777486536 | 13.89° C | 91% | 1006.3 hPa | 0 mm | - | 428 W/m² | - |
| 1777486234 | 13.33° C | 92% | 1006.5 hPa | 0 mm | - | 467 W/m² | - |
| 1777485931 | 12.78° C | 92% | 1006.5 hPa | 0 mm | - | 288 W/m² | - |
| 1777485627 | 13.33° C | 92% | 1006.7 hPa | 0 mm | - | 117 W/m² | - |
| 1777485322 | 13.33° C | 92% | 1006.5 hPa | 0 mm | - | 70 W/m² | - |
| 1777485018 | 13.33° C | 91% | 1006.4 hPa | 0 mm | - | 85 W/m² | - |
| 1777484716 | 13.33° C | 91% | 1006.6 hPa | 0 mm | - | 98 W/m² | - |
| 1777484412 | 13.89° C | 91% | 1006.4 hPa | 0 mm | - | 70 W/m² | - |
| 1777484109 | 13.89° C | 92% | 1006.6 hPa | 0 mm | - | 308 W/m² | - |
| 1777483805 | 13.89° C | 93% | 1006.7 hPa | 0 mm | - | 402 W/m² | - |
| 1777483502 | 13.33° C | 94% | 1006.7 hPa | 0 mm | - | 286 W/m² | - |
| 1777483196 | 13.33° C | 94% | 1006.9 hPa | 0 mm | - | 316 W/m² | - |
| 1777482893 | 13.33° C | 95% | 1006.6 hPa | 0 mm | - | 281 W/m² | - |
* Rain latest hour (hover to see other rain measurements)
** Current wind speed in m/s (hover to see current wind gust speed)